Regional Weather Roundup
Issued by NWS

Home | Current Version | Previous Version | Text Only | Print | Product List | Glossary On
Versions: 1 2 3 4 5 6 7 8 9 10 11 12 13 14 15 16 17 18 19 20 21 22 23 24 25 26 27
000
ASUS45 KSLC 180110
RWRUT

UTAH REGIONAL WEATHER ROUNDUP
NATIONAL WEATHER SERVICE SALT LAKE CITY UT
700 PM MDT THU APR 17 2014

UTZ001>011-023>025-180200-

NORTHERN UTAH

CITY           SKY/WX    TMP DP  RH WIND       PRES   REMARKS
HILL AFB       SUNNY     67  22  18 S7        29.89F
LOGAN          SUNNY     65  28  24 W6        29.89F
OGDEN          SUNNY     68  25  19 S9        29.88F
PROVO AIRPORT  SUNNY     70  32  24 NE6       29.90F
SALT LAKE CITY MOSUNNY   70  26  19 S13       29.86F
VERNAL         SUNNY     62  26  25 S7        29.95F
WENDOVER       SUNNY     72  27  18 E9        29.82F
HEBER CITY     SUNNY     64  27  24 W9        29.94S
WEST JORDAN    SUNNY     68  36  30 S10       29.89F

$$

UTZ012>022-026-027-180200-

SOUTHERN UTAH

CITY           SKY/WX    TMP DP  RH WIND       PRES   REMARKS
BRYCE CANYON   PTSUNNY   62  25  24 S10       30.07F
CEDAR CITY     SUNNY     70  18  13 SW15G23   29.95S
MILFORD        MOSUNNY   74  19  12 SW22G32   29.88F
MOAB/CYNLANDS  SUNNY     70  20  15 S10       29.94F
PRICE          MOSUNNY   64  17  16 E15       29.99S
ST GEORGE      CLEAR     84  27  12 W12       29.83S
KANAB            N/A     75  23  14 SW12      29.96S

$$

REGIONAL REPORTS     COLORADO/ARIZONA

CITY           SKY/WX    TMP DP  RH WIND       PRES   REMARKS
CRAIG, CO      PTCLDY    58  23  26 W14       30.01S
GRAND JUNCTION CLEAR     64  19  17 NW3       29.98F
RIFLE          CLEAR     63  21  20 W15       30.00F
MONTROSE       CLEAR     66  20  17 N5        30.03F
CORTEZ         CLEAR     64  20  18 W6        30.07S
PAGE, AZ       SUNNY     78  25  14 NE10      29.90F
GRAND CANYON   MOSUNNY   68  18  14 SW13      30.06F
KINGMAN        PTSUNNY   78  12   8 SW18      29.90S
FLAGSTAFF      MOSUNNY   64  18  17 SW14      30.11R

$$

REGIONAL REPORTS    NEVADA/IDAHO/WYOMING

CITY           SKY/WX    TMP DP  RH WIND       PRES   REMARKS
LAS VEGAS, NV  PTSUNNY   88  19   8 S17G25    29.72S
ELY            MOSUNNY   69  23  17 S16G25    29.91F
ELKO           MOSUNNY   74  25  16 SW9       29.76F
POCATELLO, ID  MOSUNNY   66  25  21 S21       29.84F
BURLEY         SUNNY     70  31  23 S13       29.75F
EVANSTON, WY   MOSUNNY   58  23  26 SW15G22   29.99F
ROCK SPRINGS   MOSUNNY   59  18  20 W9        29.97F

$$



USA.gov is the U.S. government's official web portal to all federal, state and local government web resources and services.